Regional Weather Roundup
Issued by NWS

Home | Current Version | Previous Version | Graphics & Text | Print | Product List | Glossary Off
Versions: 1 2 3 4 5 6 7 8 9 10 11 12 13 14 15 16 17 18 19 20 21 22 23 24 25 26 27 28 29 30 31 32 33 34 35 36 37 38 39 40 41 42 43 44 45 46 47 48 49 50

000
ASUS43 KTOP 240608
RWRKS

WEATHER ROUNDUP FOR KANSAS
NATIONAL WEATHER SERVICE GOODLAND KS
100 AM CDT WED AUG 24 2016

NOTE:  "FAIR" INDICATES FEW OR NO CLOUDS BELOW 12,000 FEET WITH NO
SIGNIFICANT WEATHER AND/OR OBSTRUCTIONS TO VISIBILITY.

KSZ001>006-013>018-027>032-041>047-240700-
NORTHWEST KANSAS

CITY           SKY/WX    TMP DP  RH WIND       PRES   REMARKS
GOODLAND       CLOUDY    62  49  62 NE5       30.01F
6HR MIN TEMP:  61; 6HR MAX TEMP:  89;

HAYS           PTCLDY    79  61  53 W10       29.88S
HILL CITY      PTCLDY    74  59  59 N10       29.91F
6HR MIN TEMP:  71; 6HR MAX TEMP:  94;

RUSSELL        PTCLDY    77  63  61 S12       29.86S
6HR MIN TEMP:  77; 6HR MAX TEMP:  92;

$$

KSZ061>065-074>080-084>089-240700-
SOUTHWEST KANSAS

CITY           SKY/WX    TMP DP  RH WIND       PRES   REMARKS
DODGE CITY     PTCLDY    77  64  64 S15G24    29.94S
6HR MIN TEMP:  77; 6HR MAX TEMP:  95;

ELKHART          N/A     75  59  57 S12         N/A
GARDEN CITY    MOCLDY    75  64  68 S15G23    29.94S
6HR MIN TEMP:  75; 6HR MAX TEMP:  94;

GREAT BEND     CLOUDY    77  61  57 S13       29.89R
LIBERAL        MOCLDY    73  61  64 S15       29.99S
PRATT          PTCLDY    71  58  63 S10       29.93S
6HR MIN TEMP:  71; 6HR MAX TEMP:  86;

$$

KSZ066>073-081>083-090>101-240700-
SOUTHEAST KANSAS

CITY           SKY/WX    TMP DP  RH WIND       PRES   REMARKS
CHANUTE        MOCLDY    79  71  76 S13       29.96F
6HR MIN TEMP:  79; 6HR MAX TEMP:  84;

COFFEYVILLE    CLOUDY    81  71  71 S13       29.96F
6HR MIN TEMP:  81; 6HR MAX TEMP:  86;

HUTCHINSON     PTCLDY    80  69  69 S12       29.92R
6HR MIN TEMP:  79; 6HR MAX TEMP:  90;

MEDICINE LODGE   N/A     75  59  57 S8        29.93S
NEWTON         MOCLDY    79  71  76 S17G23    29.92F
PARSONS        PTCLDY    80  70  71 S10G17    29.97F
6HR MIN TEMP:  80; 6HR MAX TEMP:  85;

WICHITA INTL   MOCLDY    80  71  74 S13       29.92S
6HR MIN TEMP:  80; 6HR MAX TEMP:  87;

WICHITA JABRA  MOCLDY    80  71  74 S14       29.92S
6HR MIN TEMP:  80; 6HR MAX TEMP:  85;

WICHITA MCCONL MOCLDY    80  70  73 SW16      29.93S
WINFIELD       CLOUDY    81  71  71 S12       29.95R
6HR MIN TEMP:  81; 6HR MAX TEMP:  85;

$$

KSZ007>012-019>026-033>040-048>060-102>105-240700-
NORTHEAST KANSAS

CITY           SKY/WX    TMP DP  RH WIND       PRES   REMARKS
CONCORDIA      CLEAR     76  70  82 S8        29.86S
6HR MIN TEMP:  72; 6HR MAX TEMP:  79; 6HR PCP:  0.14;

EMPORIA        CLEAR     77  71  82 S17       29.91F
6HR MIN TEMP:  77; 6HR MAX TEMP:  83;

LAWRENCE       CLOUDY    79  71  76 SW12      29.93R
6HR MIN TEMP:  78; 6HR MAX TEMP:  83; 6HR PCP: TRACE;

MANHATTAN      PTCLDY    73  70  90 SW3       29.87F
6HR MIN TEMP:  73; 6HR MAX TEMP:  86;

MARYSVILLE     CLEAR     73  66  78 S10       29.88R
OLATHE IND     MOCLDY    78  71  79 S20G30    29.92F
6HR MIN TEMP:  78; 6HR MAX TEMP:  82;

OLATHE EXE     CLOUDY    77  70  79 S16G28    29.92F
6HR MIN TEMP:  77; 6HR MAX TEMP:  81;

SALINA         PTCLDY    83  70  64 S17G28    29.86S
6HR MIN TEMP:  83; 6HR MAX TEMP:  90;

TOPEKA BILLARD CLOUDY    74  66  76 VRB3      29.93R
6HR MIN TEMP:  74; 6HR MAX TEMP:  85;

TOPEKA FORBES  CLOUDY    80  70  71 CALM      29.93R
6HR MIN TEMP:  80; 6HR MAX TEMP:  86;

$$




USA.gov is the U.S. government's official web portal to all federal, state and local government web resources and services.